Lid_Strength_Index
1 2 0 2 7 8 10 9 6 7 7 4 4 6 7 7 9 9 1 0 0 0 -0 -1 -1 -1 -1 -1 -1 -1 -1 -1 -1 -1 -1 -1 -1 -1 -1 -2 -2 -2 -1 -1 -1 -1 -1 -1 -1
2 1 2 4 8 11 12 8 8 6 5 4 4 5 7 9 5 4 2 0 0 -0 -0 -1 -1 -1 -1 -1 -1 -1 -1 -1 -1 -1 -1 -1 -1 -1 -1 -2 -2 -1 -1 -1 -1 -1 -1 -1 -1
-0 0 4 6 7 10 10 7 6 5 4 4 5 4 5 8 4 2 3 0 -0 0 -0 -1 -1 -1 -1 -1 -1 -1 -1 -1 -1 -1 -1 -1 -1 -1 -1 -2 -2 -1 -1 -1 -1 -1 -1 -1 -1
2 3 4 7 8 7 7 6 5 5 4 4 4 5 4 3 3 1 1 0 0 0 -0 -1 -1 -1 -1 -1 -1 -1 -1 -1 -1 -1 -1 -1 -1 -1 -1 -1 -2 -1 -1 -1 -1 -1 -1 -1 -1
2 4 7 8 8 8 6 5 5 5 5 5 5 6 5 2 1 1 0 1 1 0 -0 -1 -1 -1 -1 -1 -1 -1 -1 -1 -1 -1 -1 -1 -1 -1 -1 -1 -1 -1 -1 -1 -1 -1 -1 -3 -3
5 4 8 9 8 6 5 4 4 5 4 4 5 5 5 2 2 1 0 1 0 0 -0 -1 -1 -1 -1 -1 -1 -1 -1 -1 -1 -1 -1 -1 -1 -1 -1 -2 -2 -1 -1 -1 -1 -1 -3 -3 -3
6 6 8 8 8 7 6 4 5 5 5 5 4 6 5 4 1 1 0 0 0 0 -0 -0 -0 -1 -1 -1 -1 -1 -1 -1 -1 -1 -1 -1 -1 -1 -2 -2 -2 -1 -1 -1 -1 -2 -2 -3 -3
4 5 7 7 8 7 5 5 4 4 5 3 3 7 8 4 3 1 1 0 0 0 0 -0 -0 -0 -1 -1 -1 -1 -1 -1 -1 -1 -1 -1 -1 -1 -2 -2 -2 -2 -1 -2 -2 -2 -2 -3 -3
3 7 8 7 7 6 5 5 4 3 4 4 3 4 4 2 3 1 2 1 1 1 0 -0 -0 -0 -0 -0 -1 -1 -1 -1 -1 -1 -1 -1 -1 -1 -1 -2 -3 -2 -2 -2 -2 -2 -3 -3 -3
5 7 7 5 5 6 5 5 5 5 4 4 4 3 3 3 2 3 3 2 2 1 1 0 -0 -0 -0 -0 -1 -1 -1 -1 -1 -1 -1 -1 -1 -1 -1 -2 -3 -2 -2 -2 -2 -2 -3 -3 -1
5 7 5 5 4 5 5 5 4 5 5 4 4 4 3 3 3 3 2 2 2 1 1 0 0 -0 -0 -0 -0 -0 -1 -1 -1 -1 -1 -1 -1 -1 -1 -1 -1 -1 -2 -1 -1 -1 -1 -1 -1
7 6 5 5 5 5 6 5 5 5 4 3 3 2 3 3 3 3 3 2 2 2 1 0 0 0 -0 -0 -0 -0 -0 -1 -0 -1 -1 -1 -0 -1 -1 -0 -1 -1 -1 -0 -1 -1 -1 -1 -1
7 6 5 5 5 5 5 6 6 5 4 3 3 3 3 2 3 2 2 2 2 2 1 1 0 0 -0 -0 -0 -0 -0 -0 -1 -1 -1 -1 -0 -0 -1 -0 -1 -1 -0 -1 -0 -0 -1 -0 -1
6 6 6 5 5 5 6 6 6 5 4 4 3 3 3 3 2 2 2 2 2 2 1 0 0 0 -0 -0 -0 -0 -0 -1 -1 -1 -1 -1 -1 -0 -0 -0 -0 -0 -1 -1 -1 -0 -0 -0 -0
6 7 7 6 6 6 6 7 7 5 4 4 4 3 3 2 2 2 2 1 1 1 1 1 0 0 0 -0 -1 -0 -0 -1 -0 -1 -1 -1 -1 -1 -0 -0 -0 -0 -1 -1 -0 0 -1 -0 -0
7 7 9 7 6 6 6 9 6 4 5 5 4 3 3 2 2 2 2 3 2 1 1 1 0 0 0 0 -0 -1 -0 -0 -0 -1 -1 -1 -1 -1 -1 -0 -0 -1 -1 -0 -0 0 0 1 0
8 10 9 8 5 6 7 8 6 4 5 5 4 3 3 3 2 2 2 2 2 0 0 -0 0 1 1 0 -0 -0 -1 -0 -0 -1 -1 -1 -1 -1 -0 -0 -0 -1 -0 -0 0 0 0 1 1
10 9 8 8 6 6 7 8 6 5 5 5 4 4 3 3 3 2 2 1 0 1 0 1 0 -1 1 0 0 0 0 -0 -0 -0 -1 -1 -1 -1 -1 -0 -0 -0 0 0 0 0 0 0 1
8 8 9 7 6 7 7 7 6 5 4 5 4 4 3 4 3 2 2 1 1 0 -0 1 1 1 0 1 2 1 2 1 0 -0 -1 -1 -1 -1 -0 -0 -0 -0 0 0 0 1 1 1 0
7 8 8 7 6 6 7 8 6 5 5 5 4 4 4 4 3 2 2 2 1 1 0 -0 0 1 1 1 1 1 1 1 0 0 -0 -1 -1 -1 -0 -0 0 0 0 1 1 1 2 1 1
7 8 8 8 7 6 7 9 8 6 5 4 4 4 3 3 4 3 3 2 2 1 1 0 -0 0 1 0 0 0 0 0 1 1 1 0 -0 -1 -1 -0 -0 0 0 1 1 1 1 2 1
9 7 7 8 8 11 7 12 8 7 6 5 4 4 4 4 3 3 3 3 2 2 1 1 -0 -1 0 0 1 1 2 3 1 1 1 0 -0 -0 -0 -0 -0 0 0 1 1 0 1 1 3
8 6 7 7 8 9 9 10 9 6 7 6 5 4 4 4 4 4 3 2 2 2 2 1 1 1 1 1 0 1 1 1 1 1 1 1 0 -0 -0 -0 -0 0 0 0 1 1 1 1 2
6 7 7 7 9 12 10 10 10 8 7 6 5 5 4 4 4 3 2 2 2 1 1 1 1 1 1 1 1 1 1 1 2 2 2 1 1 0 0 -0 -0 -0 0 0 0 0 1 1 1
7 8 12 13 13 13 9 10 9 7 6 6 6 5 4 4 4 3 3 3 2 2 2 1 1 2 1 1 1 1 1 1 1 1 2 2 2 1 1 0 0 0 0 0 0 0 1 1 1
8 9 12 16 15 13 9 14 12 7 6 5 5 5 4 4 4 3 3 3 2 2 2 1 1 2 1 1 1 1 1 1 1 1 1 1 1 1 0 0 0 0 0 0 0 0 1 1 1
8 10 7 12 12 14 12 11 9 7 7 6 6 5 5 4 3 3 2 2 2 2 2 1 1 1 1 1 1 1 1 1 1 1 1 1 0 0 0 0 0 0 0 0 0 1 1 1 1
8 7 11 12 18 18 14 15 16 12 10 9 8 6 5 4 3 3 3 2 2 1 1 1 1 1 1 1 1 1 1 0 1 1 1 1 0 0 1 1 1 1 0 0 0 1 0 1 1
9 9 9 9 14 17 17 14 10 10 10 10 8 7 6 4 4 4 3 3 2 2 2 1 1 1 1 1 0 1 1 0 0 1 1 1 1 1 0 1 1 1 1 1 1 1 1 1 1
8 9 10 13 13 13 14 14 8 8 8 8 8 7 6 5 5 5 4 4 3 2 2 2 1 1 1 0 1 1 0 0 1 1 0 0 1 1 1 1 1 1 1 1 1 1 1 1 1